Wind_Speed
22 22 22 20 18 18 18 17 17 16 16 17 17 17 16 15 15 14 14 14 14 14 15 15 16 16 17 18 18 19 20 21 22 23 24 25 25 26 27 27 28 28 28 29
22 21 20 19 19 19 18 18 18 17 18 19 18 19 18 18 17 17 17 17 17 17 18 18 18 19 19 20 21 22 23 24 25 26 26 27 28 29 29 30 31 31 31 31
21 20 19 18 19 19 20 19 19 19 20 19 19 19 20 20 20 20 20 20 20 20 21 21 21 22 22 23 23 24 25 26 28 29 29 30 30 31 32 32 32 32 32 32
20 19 18 18 18 18 19 20 20 20 20 20 21 20 20 21 21 22 22 23 24 24 24 24 24 25 25 25 26 27 28 29 30 31 32 33 34 34 34 34 34 33 33 33
20 19 19 19 18 19 20 21 21 21 21 21 21 22 22 22 22 23 24 25 26 27 26 27 27 27 27 28 29 29 30 32 32 33 34 35 36 35 36 35 34 34 34 34
20 20 19 21 19 19 20 20 20 21 21 21 22 23 24 24 24 25 26 26 27 29 30 30 30 30 31 32 32 33 34 34 35 35 36 36 36 36 37 36 36 36 36 36
20 19 20 20 19 19 19 19 20 21 21 22 23 24 24 25 25 26 27 28 29 31 32 33 34 34 35 35 35 36 36 36 36 37 38 38 38 38 38 38 38 38 39 39
18 18 20 20 20 20 20 20 21 21 22 23 24 24 25 26 27 28 29 30 31 32 34 36 36 36 36 36 37 37 37 38 38 37 38 39 39 39 40 40 40 40 42 42
19 19 20 20 20 20 20 21 22 22 23 23 23 24 25 26 27 28 29 30 31 32 34 36 37 38 38 37 38 38 39 38 39 39 40 41 41 41 42 43 43 44 44 45
20 21 21 21 21 21 22 22 22 23 23 24 24 24 25 26 27 28 29 29 29 31 33 35 36 36 36 37 37 38 39 39 40 41 41 42 43 44 45 45 46 47 48 49
21 22 22 22 22 23 23 23 23 23 23 24 25 25 26 26 26 27 27 28 29 31 32 34 35 36 36 36 36 37 39 40 40 42 42 44 45 45 46 47 48 49 50 52
22 21 22 23 23 23 24 24 24 24 25 24 25 25 26 27 27 27 27 28 29 30 31 32 34 36 37 37 37 38 39 40 41 41 42 43 45 46 48 49 51 52 54 55
21 21 22 22 23 24 24 25 25 26 26 26 26 26 26 27 28 28 28 29 30 31 32 33 34 36 37 37 38 38 39 40 41 42 43 45 47 49 51 52 53 55 56 57
21 21 22 23 24 24 25 25 26 26 27 27 28 28 28 28 28 28 29 30 31 32 33 34 35 36 36 37 38 39 40 42 43 45 46 48 50 51 53 54 55 56 57 59
21 22 23 23 24 25 25 26 27 27 28 29 29 30 30 30 30 30 31 32 33 34 35 35 36 37 38 39 40 41 42 44 45 47 48 50 51 53 55 56 57 58 59 60
21 22 23 23 24 25 26 27 27 28 29 30 30 31 32 32 32 33 33 34 35 36 36 37 38 39 39 41 42 43 45 46 48 50 51 53 54 55 56 57 58 59 59 60
21 22 23 24 25 25 26 27 28 29 30 30 31 33 33 33 34 35 36 36 37 37 37 38 39 41 42 43 45 46 48 49 51 52 53 55 55 56 57 57 58 58 58 59
22 22 23 24 25 26 26 27 28 29 30 32 33 34 35 36 36 36 37 38 38 39 40 41 42 44 45 46 47 49 50 51 52 53 54 54 55 55 56 57 57 57 57 57
23 23 24 25 26 27 28 29 30 31 32 33 35 35 36 36 36 37 39 40 40 41 42 43 45 46 47 48 49 50 51 52 53 54 54 54 55 55 55 54 54 53 53 52
24 25 26 27 27 28 29 30 31 32 33 34 35 36 37 38 40 41 42 42 43 44 44 46 46 47 48 49 50 50 51 52 52 53 53 53 53 53 52 51 50 49 48 47
26 27 27 28 29 30 31 32 34 35 36 37 38 39 39 40 41 42 42 43 44 44 45 46 47 47 48 48 48 49 49 50 50 50 49 49 49 49 48 47 45 44 42 40
27 28 29 30 31 33 34 35 36 38 39 40 40 41 41 41 42 42 43 43 44 44 44 45 46 46 46 46 46 47 47 47 46 46 45 44 44 43 42 41 40 38 36 35
28 29 31 33 34 35 36 37 38 39 40 40 40 41 41 42 42 43 43 43 43 43 43 44 44 44 44 44 44 44 43 42 42 41 40 39 38 37 36 35 34 33 32 31
30 31 33 34 36 37 38 39 39 40 40 41 41 41 42 43 43 43 42 42 42 42 42 42 42 41 41 41 40 39 39 38 37 36 35 34 33 32 31 29 28 27 26 26
33 34 34 35 36 37 38 38 39 40 40 40 41 41 41 41 40 40 40 40 40 40 40 39 38 37 37 36 36 35 34 34 32 31 29 28 27 26 25 23 23 22 21 20
33 34 35 35 36 37 38 38 39 39 39 39 39 39 39 39 39 38 38 38 37 37 36 35 34 34 33 33 32 31 31 29 27 26 25 24 23 22 20 20 19 18 15 13
33 34 35 36 36 37 37 37 37 37 37 37 37 37 37 36 36 35 35 35 34 33 32 31 31 30 30 29 28 27 25 24 23 22 21 20 19 18 16 15 13 11 9 7
Wind_Direction
251 254 253 251 250 250 252 256 256 257 258 258 257 256 258 259 259 261 263 263 264 264 264 262 260 260 259 259 259 259 259 259 259 260 260 262 263 264 266 268 269 271 273 275
251 253 251 249 249 250 253 256 257 257 256 255 253 251 253 256 258 259 259 262 264 263 264 264 262 262 261 261 262 263 263 264 264 264 264 265 265 266 267 269 272 274 275 278
248 249 250 254 252 251 254 258 258 258 256 253 251 252 254 254 256 258 260 261 262 263 262 263 263 263 263 263 262 262 263 264 265 266 267 267 268 269 269 270 272 275 277 278
244 247 251 251 252 252 254 258 259 258 257 255 254 254 256 256 256 259 260 261 262 263 262 262 263 264 265 265 265 265 264 264 265 267 269 268 269 270 272 272 273 275 277 279
243 247 250 251 252 254 255 257 258 259 259 259 258 257 256 257 257 258 259 261 261 261 262 261 263 264 265 267 268 268 268 267 268 267 268 271 271 273 274 275 275 276 278 280
246 241 245 250 252 254 257 259 259 260 261 260 260 259 258 259 260 260 259 259 260 262 263 262 262 263 264 266 267 268 268 268 268 268 269 271 272 273 275 276 277 278 279 281
241 239 245 249 251 252 255 258 259 261 263 263 262 262 262 260 260 260 261 260 261 262 263 262 262 263 264 265 267 269 269 269 268 268 269 270 272 274 276 277 278 279 280 282
240 245 246 249 253 254 257 260 262 264 265 265 264 263 262 262 261 260 260 261 262 263 263 262 262 264 266 267 268 269 269 268 269 270 271 271 272 275 276 278 278 279 281 283
243 247 251 254 256 259 263 266 267 268 269 267 266 265 264 264 263 263 265 265 264 265 265 264 263 264 265 267 269 268 267 269 270 270 271 273 275 277 278 278 279 280 283 284
245 249 254 256 259 264 267 269 271 272 271 269 268 268 267 266 266 267 267 267 267 268 268 268 267 266 267 268 268 269 269 269 271 273 275 275 276 279 280 280 281 283 284 285
248 251 254 258 262 265 268 271 272 273 273 273 272 270 270 270 270 271 270 269 270 271 273 271 270 271 273 273 272 272 273 273 274 276 277 278 278 279 280 281 282 283 284 285
251 255 259 262 264 267 270 273 274 275 274 273 274 272 271 272 272 272 272 273 275 275 275 276 277 276 276 274 274 276 277 276 278 280 282 282 282 283 284 284 284 284 285 285
256 258 261 264 266 269 271 274 275 274 274 276 275 274 275 276 276 276 275 276 277 278 279 279 280 280 278 277 279 280 280 281 283 285 285 285 285 285 284 285 285 285 286 286
259 261 263 266 269 271 273 274 276 277 278 279 279 279 278 277 276 277 278 279 280 280 281 281 282 282 282 283 283 284 285 285 285 285 286 286 286 286 287 287 287 287 287 287
261 263 265 267 270 272 273 275 275 275 277 279 279 280 279 277 277 278 280 281 281 282 283 284 285 286 286 286 286 287 287 287 288 288 288 288 288 288 288 288 288 288 288 288
264 266 267 269 271 274 276 275 275 274 276 279 280 281 279 277 277 279 280 282 282 283 284 285 286 287 288 288 289 289 289 289 289 290 289 289 289 289 289 289 289 289 289 289
268 269 270 271 272 273 275 274 275 276 279 279 280 280 279 278 279 280 281 282 283 284 285 286 287 288 289 290 290 291 291 291 291 291 291 291 291 291 291 290 291 291 291 291
271 272 272 271 272 273 275 277 278 277 278 278 280 280 278 279 279 280 281 283 285 287 288 288 289 290 291 292 293 293 293 293 293 293 293 293 292 292 292 292 292 292 292 292
272 274 275 276 277 278 281 282 282 280 279 280 280 279 279 281 283 283 284 286 287 288 289 290 291 292 292 293 294 294 294 294 294 294 294 294 294 294 294 294 294 294 295 294
275 276 277 278 279 280 282 283 283 283 282 282 282 283 284 285 285 286 287 288 289 290 291 292 293 294 294 294 295 295 295 295 295 295 295 295 295 295 295 295 295 295 295 295
275 276 277 278 280 282 283 284 285 286 285 285 285 286 288 289 290 291 291 291 291 292 293 293 294 294 295 295 294 294 295 295 296 296 296 297 297 297 296 296 296 296 296 296
277 277 278 281 284 285 286 286 286 286 286 287 288 289 290 291 292 292 292 292 293 293 294 294 294 294 294 294 294 295 296 296 297 297 297 298 299 299 298 298 297 297 295 295
278 279 281 283 285 285 286 287 288 289 289 290 291 292 293 294 294 294 294 293 294 294 294 294 294 294 295 295 296 296 297 297 298 298 298 299 300 301 301 300 299 298 297 296
281 282 283 284 285 286 287 288 289 290 291 292 293 294 295 296 296 296 295 295 294 294 294 294 295 295 295 296 297 297 297 298 299 299 299 300 301 301 302 302 301 301 301 299
283 284 285 287 288 289 290 291 292 293 293 294 296 297 297 297 296 296 296 296 295 295 295 295 295 296 296 297 298 298 299 300 300 300 301 302 303 304 304 304 305 306 305 303
283 285 287 288 290 291 292 293 293 294 295 295 296 296 296 296 296 296 296 296 296 296 295 295 296 297 298 299 299 300 301 302 301 302 303 304 305 306 305 306 307 310 311 312
286 288 289 290 291 293 294 294 294 295 295 295 295 296 295 295 296 296 296 296 297 297 296 296 296 297 298 300 301 302 303 303 303 303 304 305 306 309 309 310 313 316 320 326
Height
5829 5829 5830 5831 5832 5833 5834 5835 5836 5837 5836 5835 5835 5834 5835 5835 5835 5836 5836 5836 5837 5837 5838 5838 5839 5839 5840 5841 5841 5842 5842 5843 5843 5843 5844 5844 5844 5844 5844 5844 5843 5842 5841 5840
5823 5824 5824 5825 5826 5827 5828 5829 5829 5830 5830 5829 5829 5830 5830 5831 5831 5832 5832 5832 5833 5833 5833 5834 5834 5835 5835 5836 5836 5837 5837 5837 5837 5837 5837 5837 5837 5837 5837 5836 5836 5835 5833 5832
5818 5818 5819 5820 5821 5821 5822 5823 5824 5824 5825 5823 5824 5824 5825 5826 5826 5826 5827 5827 5828 5828 5828 5829 5829 5829 5830 5830 5830 5830 5830 5831 5831 5830 5830 5830 5830 5830 5829 5828 5828 5827 5825 5824
5812 5813 5814 5817 5815 5816 5816 5817 5817 5817 5817 5818 5818 5819 5819 5820 5820 5821 5821 5821 5821 5822 5822 5823 5823 5823 5824 5824 5824 5824 5824 5824 5823 5823 5823 5822 5822 5821 5821 5820 5819 5818 5816 5815
5806 5808 5809 5810 5810 5810 5811 5811 5811 5811 5811 5812 5812 5813 5813 5813 5814 5815 5815 5815 5815 5815 5815 5816 5816 5816 5817 5817 5817 5816 5816 5816 5815 5815 5814 5814 5813 5812 5811 5811 5810 5808 5807 5805
5800 5802 5803 5804 5804 5804 5805 5805 5805 5804 5805 5805 5806 5806 5807 5807 5807 5807 5808 5808 5808 5808 5808 5808 5809 5809 5809 5809 5808 5808 5807 5807 5807 5806 5805 5804 5803 5802 5802 5801 5799 5798 5796 5794
5793 5795 5797 5797 5797 5799 5801 5800 5799 5798 5799 5799 5799 5800 5800 5800 5800 5800 5800 5800 5800 5800 5800 5800 5800 5800 5800 5799 5799 5799 5798 5798 5797 5796 5795 5794 5793 5792 5791 5790 5788 5787 5785 5783
5788 5790 5792 5790 5791 5793 5793 5792 5792 5792 5792 5792 5792 5792 5792 5792 5792 5792 5792 5792 5792 5791 5791 5791 5790 5790 5790 5789 5789 5789 5788 5787 5787 5786 5785 5783 5782 5781 5780 5778 5777 5775 5773 5771
5783 5785 5784 5784 5785 5785 5786 5786 5785 5785 5785 5785 5785 5784 5784 5784 5784 5784 5784 5783 5783 5783 5782 5781 5781 5781 5780 5779 5779 5778 5777 5776 5776 5775 5774 5773 5772 5770 5768 5766 5764 5762 5760 5758
5776 5776 5777 5778 5778 5779 5779 5779 5779 5778 5778 5778 5777 5777 5777 5776 5776 5776 5776 5775 5775 5774 5773 5773 5772 5771 5770 5769 5768 5768 5767 5766 5765 5764 5763 5761 5760 5758 5755 5754 5752 5749 5747 5744
5770 5770 5771 5772 5772 5772 5772 5772 5772 5771 5771 5771 5770 5769 5769 5768 5768 5767 5767 5767 5767 5766 5765 5764 5763 5761 5760 5759 5758 5757 5756 5755 5754 5753 5751 5749 5747 5745 5742 5740 5738 5735 5732 5729
5764 5765 5766 5766 5766 5766 5765 5765 5765 5764 5764 5763 5762 5762 5761 5761 5760 5759 5759 5759 5758 5757 5756 5755 5753 5752 5750 5749 5748 5747 5745 5744 5742 5741 5739 5736 5734 5731 5728 5726 5723 5720 5716 5713
5757 5758 5759 5759 5759 5759 5759 5758 5758 5757 5756 5756 5755 5754 5754 5753 5752 5751 5751 5750 5749 5748 5747 5746 5744 5743 5741 5739 5738 5737 5735 5733 5731 5728 5726 5723 5720 5717 5714 5711 5707 5704 5700 5695
5751 5752 5752 5752 5752 5752 5752 5751 5751 5750 5749 5748 5747 5746 5745 5744 5744 5743 5742 5741 5740 5739 5738 5736 5734 5733 5731 5729 5727 5725 5723 5720 5718 5715 5712 5709 5705 5702 5698 5694 5690 5686 5682 5677
5745 5745 5746 5746 5745 5745 5745 5744 5743 5742 5741 5740 5739 5738 5737 5736 5735 5734 5733 5732 5730 5729 5727 5726 5724 5722 5720 5718 5716 5713 5710 5708 5704 5701 5698 5694 5690 5686 5682 5677 5673 5668 5664 5659
5738 5739 5739 5738 5738 5738 5737 5736 5735 5734 5733 5732 5731 5730 5728 5727 5726 5725 5723 5722 5720 5718 5717 5715 5713 5710 5708 5706 5703 5700 5697 5694 5690 5686 5682 5678 5674 5669 5665 5660 5655 5650 5645 5640
5732 5732 5732 5731 5731 5730 5729 5729 5728 5726 5725 5724 5723 5721 5720 5718 5716 5715 5713 5711 5710 5707 5705 5703 5701 5698 5695 5692 5689 5686 5682 5679 5675 5671 5666 5662 5657 5652 5647 5642 5637 5632 5627 5622
5725 5725 5724 5724 5723 5723 5722 5721 5719 5718 5717 5715 5713 5712 5710 5708 5706 5705 5703 5700 5698 5696 5694 5691 5688 5685 5682 5678 5675 5671 5667 5663 5659 5654 5650 5645 5640 5635 5630 5625 5619 5614 5609 5604
5718 5718 5717 5717 5716 5715 5714 5712 5711 5709 5708 5706 5704 5702 5700 5698 5696 5694 5691 5689 5686 5684 5681 5678 5674 5671 5667 5664 5660 5656 5652 5648 5643 5638 5633 5628 5623 5618 5613 5607 5602 5597 5592 5587
5711 5710 5710 5709 5708 5706 5705 5703 5702 5700 5698 5696 5694 5692 5689 5687 5684 5682 5679 5676 5673 5670 5667 5664 5660 5657 5653 5649 5645 5640 5636 5632 5627 5622 5617 5612 5606 5601 5596 5591 5586 5582 5577 5572
5703 5702 5701 5700 5699 5697 5696 5694 5692 5690 5688 5685 5683 5680 5678 5675 5672 5669 5666 5663 5660 5657 5653 5650 5646 5642 5638 5634 5630 5625 5621 5616 5611 5606 5601 5596 5591 5586 5581 5576 5572 5568 5563 5559
5695 5694 5693 5691 5690 5688 5686 5684 5682 5680 5677 5675 5672 5669 5666 5663 5660 5657 5653 5650 5647 5643 5639 5635 5632 5628 5624 5619 5615 5611 5606 5602 5597 5592 5587 5582 5577 5572 5568 5563 5559 5555 5551 5547
5686 5685 5683 5682 5680 5678 5676 5673 5671 5668 5666 5663 5660 5657 5654 5650 5647 5644 5640 5636 5633 5629 5625 5622 5618 5614 5610 5606 5601 5597 5593 5588 5584 5579 5575 5570 5566 5561 5557 5552 5548 5544 5540 5537
5677 5675 5673 5672 5670 5667 5665 5662 5659 5657 5654 5650 5647 5644 5641 5637 5634 5630 5626 5623 5619 5615 5612 5608 5604 5600 5596 5593 5589 5584 5580 5576 5572 5568 5564 5559 5555 5551 5547 5543 5539 5535 5532 5528
5667 5665 5663 5661 5658 5656 5653 5650 5647 5644 5641 5638 5635 5631 5628 5624 5621 5617 5613 5610 5606 5603 5599 5596 5592 5588 5585 5581 5577 5573 5569 5565 5561 5557 5554 5550 5546 5542 5539 5535 5532 5529 5525 5522
5657 5654 5652 5650 5647 5644 5641 5638 5635 5632 5629 5626 5623 5619 5615 5612 5608 5605 5602 5598 5594 5591 5587 5584 5581 5577 5574 5570 5566 5563 5559 5556 5552 5549 5546 5542 5539 5535 5532 5529 5526 5523 5520 5518
5646 5644 5641 5639 5636 5633 5630 5627 5624 5621 5618 5614 5611 5607 5604 5601 5597 5594 5590 5587 5583 5580 5577 5573 5570 5567 5564 5561 5557 5554 5551 5548 5544 5541 5539 5536 5533 5530 5527 5525 5522 5520 5518 5516